Weather History for Marathon, FL

Change the Weather History Date:

Sunday, April 14, 2013

  Actual Average Record
Temperature  
Mean Temperature 85 °F 77 °F  
Max Temperature 89 °F 83 °F 89 °F (2013)
Min Temperature 81 °F 72 °F 66 °F (2004)
Degree Days  
Heating Degree Days 0 0  
Month to date heating degree days 0 0  
Since 1 July heating degree days 36 81  
Cooling Degree Days 20 12  
Month to date cooling degree days 221 162  
Year to date cooling degree days 1009 827  
Growing Degree Days 34 (Base 50)    
Moisture  
Dew Point 72 °F    
Average Humidity 68    
Maximum Humidity 79    
Minimum Humidity 56    
Precipitation  
Precipitation 0.00 in 0.06 in 0.56 in (2012)
Month to date precipitation 2.11 0.98  
Year to date precipitation 5.88 7.19  
Snow  
Snow 0.00 in - - ()
Month to date snowfall 0.0  
Since 1 July snowfall 0.0  
Snow Depth 0.00 in    
Sea Level Pressure  
Sea Level Pressure 29.94 in    
Wind  
Wind Speed 8 mph (SE)    
Max Wind Speed 13 mph    
Max Gust Speed 20 mph    
Visibility 10 miles    
Events      
T = Trace of Precipitation, MM = Missing Value Source: NWS Daily Summary

Daily Weather History Graph

Daily Weather History Graph

Search for Another Location

Airport:

Trip Planner

Search our weather history database for the weather conditions in past years. The results will help you decide how hot, cold, wet, or windy it might be!

Date:

Astronomy

Apr. 14, 2013 Rise Set
Actual Time 7:02 AM EDT 7:46 PM EDT
Civil Twilight 6:39 AM EDT 8:09 PM EDT
Nautical Twilight 6:12 AM EDT 8:36 PM EDT
Astronomical Twilight 5:44 AM EDT 9:04 PM EDT
Moon 9:56 AM EDT (4/14) 11:40 PM EDT (4/14)
Length of Visible Light 13h 29m
Length of Day
12h 43m
Waxing Crescent, 17% of the Moon is Illuminated
Apr 14
Waxing Crescent
Apr 18
First Quarter
Apr 25
Full
May 2
Last Quarter
May 9
New

Hourly Weather History & Observations

Time (EDT) Temp. Heat Index Dew Point Humidity Pressure Visibility Wind Dir Wind Speed Gust Speed Precip Events Conditions
12:53 AM 81.0 °F 85.8 °F 73.0 °F 77% 29.96 in 10.0 mi ESE 4.6 mph - N/A   Clear
1:53 AM 81.0 °F 85.8 °F 73.0 °F 77% 29.96 in 10.0 mi SE 6.9 mph - N/A   Partly Cloudy
2:53 AM 81.0 °F 85.2 °F 72.0 °F 74% 29.94 in 10.0 mi ESE 5.8 mph - N/A   Clear
3:53 AM 81.0 °F 85.2 °F 72.0 °F 74% 29.93 in 10.0 mi SE 6.9 mph - N/A   Clear
4:35 AM 80.6 °F 84.6 °F 71.6 °F 74% 29.93 in 10.0 mi SE 6.9 mph - N/A   Scattered Clouds
4:53 AM 81.0 °F 84.9 °F 71.1 °F 72% 29.93 in 10.0 mi SE 9.2 mph - N/A   Partly Cloudy
5:53 AM 81.0 °F 84.9 °F 71.1 °F 72% 29.93 in 10.0 mi SE 9.2 mph - N/A   Clear
6:53 AM 81.0 °F 84.9 °F 71.1 °F 72% 29.93 in 10.0 mi SE 8.1 mph - N/A   Clear
7:53 AM 82.0 °F 86.3 °F 71.1 °F 69% 29.94 in 10.0 mi SE 6.9 mph - N/A   Clear
8:53 AM 84.0 °F 89.6 °F 72.0 °F 67% 29.95 in 10.0 mi SE 8.1 mph - N/A   Partly Cloudy
9:53 AM 84.9 °F 90.1 °F 71.1 °F 63% 29.96 in 10.0 mi SE 8.1 mph - N/A   Clear
10:53 AM 87.1 °F 93.6 °F 72.0 °F 61% 29.97 in 10.0 mi SE 5.8 mph - N/A   Clear
11:53 AM 87.1 °F 93.6 °F 72.0 °F 61% 29.96 in 10.0 mi SE 6.9 mph - N/A   Clear
12:53 PM 87.1 °F 93.6 °F 72.0 °F 61% 29.95 in 10.0 mi SE 9.2 mph 19.6 mph N/A   Clear
1:53 PM 89.1 °F 96.0 °F 72.0 °F 57% 29.94 in 10.0 mi SE 10.4 mph 16.1 mph N/A   Clear
2:53 PM 88.0 °F 93.8 °F 71.1 °F 57% 29.92 in 10.0 mi SE 9.2 mph 16.1 mph N/A   Clear
4:53 PM 87.1 °F 92.8 °F 71.1 °F 59% 29.89 in 10.0 mi Variable 6.9 mph - N/A   Clear
5:53 PM 86.0 °F 91.5 °F 71.1 °F 61% 29.89 in 10.0 mi ESE 8.1 mph - N/A   Clear
6:53 PM 84.0 °F 89.0 °F 71.1 °F 65% 29.89 in 10.0 mi ESE 9.2 mph - N/A   Clear
7:53 PM 82.0 °F 86.3 °F 71.1 °F 69% 29.91 in 10.0 mi ESE 6.9 mph - N/A   Clear
8:53 PM 82.0 °F 86.7 °F 72.0 °F 71% 29.91 in 10.0 mi ESE 9.2 mph 16.1 mph N/A   Clear
9:53 PM 82.0 °F 87.4 °F 73.0 °F 74% 29.95 in 10.0 mi SE 9.2 mph - N/A   Mostly Cloudy
10:53 PM 82.9 °F 88.8 °F 73.0 °F 72% 29.96 in 10.0 mi SE 8.1 mph 16.1 mph N/A   Partly Cloudy
11:53 PM 82.9 °F 88.8 °F 73.0 °F 72% 29.96 in 10.0 mi SE 8.1 mph - N/A   Overcast